sat.trackr.live / text

‹ back to catalog

2023-117C

NORAD 57582 · 2023-117C

PAYLOAD ACTIVE UNKNOWN

§ Identity

Operator
Country
PRC
Launch date
2023-08-10
Launch site
JSC
Launch vehicle
Mass (kg)
RCS (m²)

External: N2YO · Heavens-Above · Gunter

§ Orbital elements

Epoch: 2026-09-21T22:34:52.826880Z

Period
93.22 min
Inclination
97.4004°
Eccentricity
0.0005127
Mean motion
15.44652261 rev/d
Perigee alt
428.9 km
Apogee alt
435.9 km
Semi-major
6,810.5 km
B*
4.0996e-4
RAAN
347.4905°
Arg perigee
236.8020°
Mean anomaly
123.2738°
Rev number
17,348

§ Raw data

2023-117C1 57582U 23117C   26264.94088920  .00019041  00000+0  40996-3 0  99962 57582  97.4004 347.4905 0005127 236.8020 123.2738 15.44652261173486

JSON: /api/v1/satellites/57582 · /tle

For live sub-satellite position, see the globe view (requires WebGL).

§ Visibility from observer

Set your observer location to see the next 7 days of passes ≥ 10°. The values pass through the URL so the page stays shareable.

No JS? Fill the form by hand. The geolocation button needs JavaScript.

§ Radio — SatNOGS DB

ModeDescriptionDownlinkUplink
FSK Mode U - Transmitter 400.450 MHz

1 transmitter · refreshed weekly from db.satnogs.org